STARLINK-1707 (46359 NORAD) Tracking and Keplerian Element Data

This shows tracking and keplerian element data for the satellite.

Feedback or suggestion? Click here.




ElementValue
Catalog46359
NameSTARLINK-1707
Epoch Orbit178
Epoch Day268.91668981
Epoch Year2020
RAAN324.4616
Inclination53.0003
Eccentricity0.0001217
Argument of Perigee63.5501
Mean Anonmoly164.4429
Mean Motion15.62742585
Decay Rate0.00023192
L11 46359U 20062AL 20268.91668981 .00023192 00000-0 25849-3 0 9991
L22 46359 53.0003 324.4616 0001217 63.5501 164.4429 15.62742585 1788

Live tracking and technical data element details for STARLINK-1707 (NORAD 46359). STARLINK-1707 can be tracked NOW for your location showing map with azimuth and elevation plus other details from your city location.

Track the satellite on the map from your city or location and see movement details for azimuth, elevation, latitude, longitude, range, height, and movement on the map or in text.







IsCatalogInMostPopularTable: catalog: 46359, numindb: 2
Update: records affected: 1



GetName: 46359 STARLINK-1707

Hit Count: updated at: Sat, 26 Sep 2020 15:57:21 GMT